Regional Weather Roundup
Issued by NWS

Home | Current Version | Previous Version | Graphics & Text | Print | Product List | Glossary On
Versions: 1 2 3 4 5 6 7 8 9 10 11 12 13 14 15 16 17 18 19 20 21 22 23 24 25 26 27 28 29 30 31 32 33 34 35 36 37 38 39 40 41 42 43 44 45 46 47 48 49 50
000
ASUS43 KLSX 310459
RWRMO

WEATHER SUMMARY FOR MISSOURI
NATIONAL WEATHER SERVICE SPRINGFIELD MO
1100 PM CST FRI JAN 30 2015

NOTE: "FAIR" INDICATES FEW OR NO CLOUDS BELOW 12,000 FEET WITH NO
       SIGNIFICANT WEATHER AND/OR OBSTRUCTIONS TO VISIBILITY.
       CURRENT SKY AND/OR WEATHER CONDITIONS ARE NOT AVAILABLE FOR
       CHILLICOTHE AND FARMINGTON.

MOZ001>031-035>038-043-044-053-054-310600-
...NORTHERN AND WESTERN MISSOURI...

CITY           SKY/WX    TMP DP  RH WIND       PRES   REMARKS
KANSAS CTY INT CLOUDY    33  23  66 S9        30.34F WCI  25
KANSAS C DTWN  CLOUDY    37  21  52 S5        30.36F
LEE`S SUMMIT   CLOUDY    35  20  54 S7        30.35F WCI  29
ST JOSEPH      CLOUDY    30  21  69 CALM      30.35F
CHILLICOTHE      N/A     30  20  66 S5        30.36F WCI  25
KIRKSVILLE     CLOUDY    28  21  75 S7        30.35F WCI  21

$$
MOZ066>068-077>081-088>096-101>105-310600-
...SOUTHWEST MISSOURI...

CITY           SKY/WX    TMP DP  RH WIND       PRES   REMARKS
SPRINGFIELD    CLOUDY    39  19  44 SE5       30.33F
JOPLIN         CLOUDY    38  28  67 CALM      30.37S

$$
MOZ032>034-039>042-045>050-055>058-069>072-310600-
...CENTRAL MISSOURI...

CITY           SKY/WX    TMP DP  RH WIND       PRES   REMARKS
COLUMBIA       CLOUDY    30  19  63 SE7       30.38F WCI  23
JEFFERSON CITY CLOUDY    27  20  75 SE6       30.40F WCI  20
ROLLA          CLOUDY    31  19  61 E7        30.36F WCI  24
SEDALIA        CLOUDY    32  21  64 SE5       30.38F WCI  27
OSAGE BEACH    CLOUDY    32  18  55 CALM      30.37F

$$
MOZ051-052-059>065-310600-
...EAST CENTRAL MISSOURI...

CITY           SKY/WX    TMP DP  RH WIND       PRES   REMARKS
ST LOUIS INTL  MOCLDY    33  20  58 SE5       30.42S WCI  29
SPIRIT OF STL  MOCLDY    24  19  81 CALM      30.41S
ST CHARLES     MOCLDY    26  22  84 E3        30.41F

$$
MOZ072>076-082>087-097>100-106>115-310600-
...SOUTH CENTRAL AND SOUTHEAST MISSOURI...

CITY           SKY/WX    TMP DP  RH WIND       PRES   REMARKS
CAPE GIRARDEAU CLOUDY    32  22  66 E3        30.44F
FARMINGTON     CLOUDY    28  21  74 S5        30.44S WCI  23
POPLAR BLUFF   MOCLDY    30  25  81 CALM      30.44S
WEST PLAINS    CLOUDY    36  17  46 SE5       30.38F

$$


USA.gov is the U.S. government's official web portal to all federal, state and local government web resources and services.